Location: Unspecified
(22.6800°N, 112.2000°E)
Time: 12:39:15
(UTC+08:00)

Transit 2A - Pass Details

Date: 08 August 2021
Orbit: 595 x 963 km, 66.7° (Epoch: 16 September)

Event Time Altitude Azimuth Distance (km) Brightness Sun altitude
Rises 04:08:52 0° 199° (SSW) 2,824 - -25.2°
Reaches altitude 10° 04:11:06 10° 198° (SSW) 1,918 - -24.8°
Exits shadow 04:15:11 76° 142° (SE) 618 5.4 -24.0°
Maximum altitude 04:15:21 78° 113° (ESE) 614 5.5 -23.9°
Drops below altitude 10° 04:19:45 10° 26° (NNE) 1,978 8.9 -23.1°
Sets 04:22:04 0° 25° (NNE) 2,922 9.9 -22.6°
